NOAA 16 DEB, 42390

Orbit data source: Space-Track

NOAA 16 DEB, 42390 is space debris in SSO originally from a launch on Thu, 21 Sep 2000 UTC launched from the Air Force Western Test Range (AFWTR). Debris objects in space refer to the collection of defunct objects orbiting the Earth. Examples of debris include non-operational satellites, rocket bodies, and fragments generated from explosions, collisions, or faulty payload assembly.

Loading next visibility...
Identifier
42390, 2000-055SJ
Orbit
SSO
Country
Flag of USUS
Related business
Manufacturer
Unknown
Mission
Spacecraft
Bus & Motor
Unknown
Mass
Unknown
Launch date (UTC)
2000-09-21 (26 years ago)
Launch vehicle
Unknown
Launch site
Air Force Western Test Range (AFWTR)
Object type
Payload
Rocket body
Debris
Shape & HBR
Unknown shape, 0.1 m
Radar Cross Section
Medium (>0.1 m² and <1 m²)

Expand to show TLE details & history
Last TLE update: 22 hours ago

TLE from 22 hours ago
0 NOAA 16 DEB
1 42390U 00055SJ  26257.16592084  .00001652  00000-0  66023-3 0  9999
2 42390  98.6162 330.6498 0013288 273.3563  86.6099 14.29746413547090
Epoch: 2026-09-14T03:58Z
TLE epoch observation values (Epoch: 2026-09-14T03:58:55.560Z)
Latitude
-0.00003°
Longitude
-82.23182°
Altitude
794.958 km
Speed
7.456 km/s
True Right ascension
22h 02m 35s
True Declination
0° 00' 00"
Sunlit
Object was in full shadow at epoch
Visualization orbit readout
Latitude
Unknown
Longitude
Unknown
Altitude
Unknown
Speed
Unknown
Apparent Right ascension
Unknown
Apparent Declination
Unknown
Sunlit
N/A
Visualization observer readout
Local Sidereal Time
19:03:00
Azimuth
Unknown
Elevation
Unknown
Doppler factor
Unknown
Orbital elements
Apogee altitude
799.244 km
Perigee altitude
780.195 km
Semi-major axis
7,167.857 km
Eccentricity
0.00133
Inclination
98.6162°
RAAN
330.6498°
Arg. of periapsis
273.3563°
True anomaly
86.76192°
Mean anomaly
86.6099°
Eccentric anomaly
86.68591°
Mean motion
3.57651 °/min
Orbital period
100.66 mins
BSTAR
0.00066023
Loading maneuver chart data...
Computing Atmospheric mass density...
Loading historical data...
Loading historical data...
Loading historical data...
Loading historical data...
Loading historical data...
Loading historical data...
Loading historical data...

Documentation

Showing up to 5 results
|